OBJECT P (43771 NORAD) Tracking and Keplerian Element Data

This shows tracking and keplerian element data for the satellite.

Feedback or suggestion? Click here.




ElementValue
Catalog43771
NameOBJECT P
Epoch Orbit565
Epoch Day10.64327965
Epoch Year2019
RAAN84.4061
Inclination97.7644
Eccentricity0.0015657
Argument of Perigee140.2622
Mean Anonmoly219.9748
Mean Motion14.94664489
Decay Rate-1E-06
L11 43771U 18099P 19010.64327965 -.00000100 00000-0 -38926-5 0 9998
L22 43771 97.7644 84.4061 0015657 140.2622 219.9748 14.94664489 5656

Live tracking and technical data element details for OBJECT P (NORAD 43771). OBJECT P can be tracked NOW for your location showing map with azimuth and elevation plus other details from your city location.

Track the satellite on the map from your city or location and see movement details for azimuth, elevation, latitude, longitude, range, height, and movement on the map or in text.







IsCatalogInMostPopularTable: catalog: 43771, numindb: 18
Update: records affected: 1



GetName: 43771 OBJECT P

Hit Count: updated at: Thu, 17 Jan 2019 14:39:20 GMT